Location: İstanbul
(41.0082°N, 28.9784°E)
Time: 02:25:38
(UTC+03:00)

DOVE 4 - Pass Details

Date: 28 April 2024
Orbit: 582 x 778 km, 97.7° (Epoch: 28 May)

Event Time Altitude Azimuth Distance (km) Brightness Sun altitude
Rises 22:06:14 0° 22° (NNE) 2,950 ? -21.3°
Reaches altitude 10° 22:08:33 10° 31° (NNE) 2,067 ? -21.6°
Enters shadow 22:11:39 31° 69° (ENE) 1,165 ? -22.0°
